Regional Weather Roundup
Issued by NWS State College, PA

Home | Current Version | Previous Version | Text Only | Print | Product List | Glossary On
Versions: 1 2 3 4 5 6 7 8 9 10 11 12 13 14 15 16 17 18 19 20 21 22 23 24 25 26 27 28 29 30 31 32 33 34 35 36 37 38 39 40 41 42 43 44 45 46 47 48 49 50
000
ASUS41 KCTP 161710
RWRCTP

REGIONAL WEATHER ROUNDUP
NATIONAL WEATHER SERVICE STATE COLLEGE PA
1200 PM EST SAT DEC 16 2017

Note: "fair" indicates few or no clouds below 12,000 feet with no
significant weather and/or obstructions to visibility.

* = STATION THAT DOES NOT REPORT PRECIPITATION /E.G. RAIN...SNOW...ETC/
    THUNDER OR FOG.

PAZ002>004-007>009-013>016-020>023-029>032-161800-
WESTERN PENNSYLVANIA

CITY           SKY/WX    TMP DP  RH WIND       PRES   REMARKS
ERIE           LGT SNOW  32  28  85 SW10      29.97F FOG
MEADVILLE      LGT SNOW  31  25  78 SW10      29.96S
FRANKLIN*      FLURRIES  31  24  75 SW14      29.97S
NEW CASTLE     CLOUDY    36  25  64 SW10G18   30.01F
BEAVER COUNTY  CLOUDY    34  25  69 SW16      30.01S
BUTLER*        CLOUDY    35  24  64 W9G22     30.01F
PITTSBURGH INT CLOUDY    37  26  64 SW10      30.02F
PITTSBURGH     CLOUDY    34  23  64 SW13      30.02F
INDIANA*       PTSUNNY   34  25  69 W16G24    30.03F
LATROBE        PTSUNNY   36  25  64 SW17G29   30.04F
WASHINGTON CO* CLOUDY    36  25  64 SW14      30.07S
$$

PAZ004>006-010>012-017>019-024>028-033>037-041-042-045-046-049>053-161800-
CENTRAL PENNSYLVANIA

CITY           SKY/WX    TMP DP  RH WIND       PRES   REMARKS
BRADFORD       LGT SNOW  28  26  92 W8        29.88S FOG
DUBOIS         CLOUDY    29  23  78 SW18      29.93F HAZE
CLEARFIELD     FLURRIES  32  25  75 SW13G21   29.95F
JOHNSTOWN      CLOUDY    31  23  72 SW15G26   29.95F
ALTOONA        CLOUDY    39  24  55 W17G26    29.99S
STATE COLLEGE  CLOUDY    34  25  69 W17       29.97F
WILLIAMSPORT   CLOUDY    32  24  72 SE3       29.96F
SELINSGROVE    CLOUDY    35  24  64 S7        29.99F
FT INDIANTOWN  CLOUDY    35  24  64 SW9       30.01F
CAPITAL CITY   CLOUDY    39  23  52 SW10      30.03F
HARRISBURG     CLOUDY    38  24  57 SW12      30.03F
YORK           PTSUNNY   39  23  52 SW9G21    30.04F
$$

PAZ038>040-043-044-047-048-054-055-060>062-067>071-161800-
EASTERN PENNSYLVANIA

CITY           SKY/WX    TMP DP  RH WIND       PRES   REMARKS
SCRANTON       CLOUDY    30  21  69 SW10      29.93F
MOUNT POCONO   CLOUDY    26  20  77 W16       29.87F WCI  14
ALLENTOWN      CLOUDY    33  20  58 W13       30.01F
QUAKERTOWN*    PTSUNNY   36  21  55 SW12G18   30.01F
READING        PTSUNNY   35  24  64 SW10G18   30.01F
LANCASTER      MOSUNNY   38  25  59 SW15      30.03F
COATESVILLE    MOSUNNY   36  23  60 SW8G15    30.05F
POTTSTOWN      CLOUDY    35  21  56 SW9       30.05F
BLUE BELL      PTSUNNY   34  23  64 W10G18    30.06F
DOYLESTOWN     SUNNY     35  22  58 SW16G23   30.02F
WILLOW GROVE   NOT AVBL
NORTH PHILA    SUNNY     39  23  52 SW12G22   30.07F
PHILADELPHIA   MOSUNNY   38  25  59 SW18      30.09F
$$



USA.gov is the U.S. government's official web portal to all federal, state and local government web resources and services.